[[{"header":{"parameterUnit":"m.s-1","parameterCategory":1,"la1":30.2991,"la2":30.254,"lo1":-89.0895,"lo2":-89.0444,"dy":0.0017,"dx":0.0017,"nx":28,"ny":28,"refTime":"2023-05-23T21:00:00:Z","depth":0,"parameterNumber":2,"parameterNumberName":"U-component_of_WINDS"},"data":[0,0,0,0,0,0,0,0,0,0,0,0,0,0,0,0,0,0,0,0,0,0,0,0,0,0,0,0,0,0,0,0,0,0,0,0,0,0,0,0,0,0,0,0,0,0,0,0,0,0,0,0,0,0,0,0,0,0,-3.7978,-3.7978,0,-3.8024,-3.8024,-3.8025,-3.7943,-3.794,-3.7938,-3.7935,-3.7976,-3.798,-3.7983,0,0,0,0,0,0,0,0,0,0,0,0,0,-3.7815,-3.7819,-3.7978,-3.7978,-3.7979,-3.8024,-3.8024,-3.8025,-3.7943,-3.794,-3.7937,-3.7934,-3.7975,-3.7979,-3.7984,0,0,0,0,0,0,0,0,0,0,0,0,0,-3.7876,-3.782,-3.7978,-3.7944,-3.7941,-3.8024,-3.8024,-3.8025,-3.7944,-3.794,-3.7936,-3.7932,-3.7974,-3.7979,-3.7984,-3.81,0,0,-3.8001,-3.8003,0,0,0,0,0,0,0,0,-3.7873,-3.7882,-3.7948,-3.7946,-3.7944,-3.7974,-3.7982,-3.805,-3.7945,-3.7943,-3.7935,-3.793,-3.7978,-3.7983,-3.8001,-3.8102,-3.8104,-3.8001,-3.8005,-3.8007,-3.8009,0,0,0,0,0,0,0,-3.7868,-3.7879,-3.7996,-3.7949,-3.7946,-3.7925,-3.7929,-3.7995,-3.7983,-3.7943,-3.7937,-3.7944,-3.7976,-3.7995,-3.8001,-3.8104,-3.8001,-3.8006,-3.801,-3.8012,-3.8304,-3.8308,0,0,0,0,0,0,-3.7869,-3.7876,-3.7994,-3.7997,-3.7897,-3.7931,-3.7936,-3.7968,-3.7982,-3.798,-3.7947,-3.794,-3.7988,-3.7995,-3.8002,-3.8139,-3.8007,-3.8012,-3.8015,-3.83,-3.8305,-3.831,0,0,0,0,0,0,-3.7866,-3.788,-3.7992,-3.7935,-3.7948,-3.7938,-3.7975,-3.7971,-3.799,-3.7985,-3.7982,-3.797,-3.7985,-3.7994,-3.8077,-3.8139,-3.8015,-3.802,-3.8294,-3.8301,-3.8307,-3.8413,0,0,0,0,0,0,-3.7862,-3.788,-3.7924,-3.7937,-3.7951,-3.8068,-3.7979,-3.7975,-3.8001,-3.7991,-3.8005,-3.8004,-3.7983,-3.8069,-3.8082,-3.8144,-3.8024,-3.8289,-3.8297,-3.8305,-3.8404,-3.8422,-3.8438,0,0,0,0,0,-3.7856,-3.795,-3.7927,-3.7942,-3.8007,-3.8072,-3.808,-3.8055,-3.8006,-3.805,-3.8047,-3.8003,-3.8131,-3.8078,-3.8092,-3.8157,-3.8284,-3.8295,-3.8305,-3.8396,-3.8419,-3.8438,0,0,0,0,0,0,-3.7942,-3.7951,-3.7925,-3.8027,-3.805,-3.8058,-3.8112,-3.808,-3.8115,-3.8105,-3.8071,-3.8075,-3.8164,-3.8169,-3.8111,-3.827,-3.8199,-3.8212,-3.8264,-3.8285,-3.8302,-3.8298,-3.8028,0,0,0,0,0,-3.7973,-3.8027,-3.8031,-3.812,-3.8133,-3.8122,-3.8149,-3.8129,-3.8149,-3.8158,-3.8161,-3.8182,-3.8226,-3.8256,-3.8297,-3.8405,-3.8406,-3.8456,-3.8474,-3.8488,-3.8499,-3.8557,-3.8579,-3.8343,-3.8343,-3.8343,0,0,-3.8037,-3.8049,-3.8084,-3.8138,-3.8153,-3.8208,-3.813,-3.819,-3.823,-3.8166,-3.8245,-3.8249,-3.827,-3.8366,-3.8408,-3.8372,-3.8565,-3.8501,-3.8512,-3.8516,-3.857,-3.8592,-3.8612,-3.835,-3.8349,-3.8348,0,0,-3.8181,-3.8196,-3.8273,-3.8291,-3.8316,-3.8308,-3.8327,-3.8341,-3.8342,-3.8421,-3.8375,-3.8421,-3.8499,-3.8516,-3.8535,-3.8691,-3.8651,-3.8705,-3.8794,-3.8851,-3.887,-3.8886,-3.8941,-3.8961,-3.8717,-3.8717,-3.8717,0,-3.8256,-3.8339,-3.8315,-3.8381,-3.8406,-3.8354,-3.8431,-3.8449,-3.8485,-3.8503,-3.8463,-3.8561,-3.8572,-3.8671,-3.871,-3.8727,-3.8747,-3.8702,-3.8869,-3.8886,-3.89,-3.8952,-3.8973,-3.8723,-3.8722,-3.8722,-3.8721,0,-3.843,-3.8489,-3.8547,-3.8587,-3.8619,-3.869,-3.8676,-3.8711,-3.8689,-3.8686,-3.8767,-3.8779,-3.8822,-3.8844,-3.8822,-3.8942,-3.8919,-3.8875,-3.8802,-3.893,-3.8978,-3.8998,-3.8732,-3.873,-3.8728,-3.8727,0,0,-3.8625,-3.8655,-3.8677,-3.8695,-3.8721,-3.8765,-3.8834,-3.8879,-3.8909,-3.8937,-3.8993,-3.9062,-3.9023,-3.9045,-3.9025,-3.9075,-3.9198,-3.9025,-3.9025,-3.9056,-3.933,-3.9361,-3.9385,-3.9173,-3.9177,-3.918,-3.9328,0,-3.8768,-3.8889,-3.8872,-3.8987,-3.9041,-3.8995,-3.9055,-3.9077,-3.9076,-3.912,-3.9119,-3.9168,-3.9113,-3.9126,-3.9174,-3.9173,-3.9252,-3.9162,-3.9223,-3.9225,-3.9217,-3.941,-3.9443,-3.9582,-3.9347,-3.935,-3.9352,0,-3.8949,-3.8988,-3.911,-3.9131,-3.9152,-3.9207,-3.9248,-3.9291,-3.9316,-3.9312,-3.9339,-3.931,-3.9378,-3.9307,-3.94,-3.9339,-3.9364,-3.9367,-3.9372,-3.9375,-3.9295,-3.9417,-3.9626,-3.9646,-3.9382,-3.9379,-3.9377,0,-3.9079,-3.9161,-3.9245,-3.9262,-3.9288,-3.9328,-3.934,-3.9361,-3.939,-3.9426,-3.9444,-3.9486,-3.9509,-3.9542,-3.9525,-3.9475,-3.9621,-3.9548,-3.9618,-3.9619,-3.9648,-3.9646,-3.9863,-3.9668,-3.9667,-3.9667,-3.9667,0,-3.9238,-3.9314,-3.9304,-3.9355,-3.9439,-3.942,-3.9503,-3.9509,-3.9529,-3.958,-3.9543,-3.9591,-3.9568,-3.9614,-3.9602,-3.9681,-3.9691,-3.9689,-3.9684,-3.9691,-3.9691,-3.9704,-3.9694,-3.9673,-3.9671,-3.967,-3.9669,0,-3.9395,-3.9391,-3.9479,-3.9499,-3.9506,-3.9567,-3.9583,-3.9631,-3.9629,-3.9695,-3.9709,-3.9705,-3.9759,-3.9747,-3.9804,-3.9796,-3.9895,-3.9879,-3.9887,-3.9882,-3.9953,-3.9946,-4.0183,-4.0213,-4.0001,-4.0003,-4.0005,0,-3.9495,-3.9554,-3.9581,-3.9615,-3.9631,-3.9684,-3.9715,-3.9699,-3.9732,-3.9767,-3.981,-3.9861,-3.99,-3.9987,-3.9989,-4.0033,-4.0017,-4.0097,-4.0022,-4.0028,-4.0016,-4.0012,-4.0017,-4.0111,-4.0113,-4.0115,-4.0117,0,-3.9674,-3.9671,-3.9718,-3.9766,-3.9805,-3.984,-3.9872,-3.9901,-3.9887,-3.9927,-3.9982,-4.0014,-4.0075,-4.0125,-4.0167,-4.0177,-4.0145,-4.0141,-4.0159,-4.0165,-4.0167,-4.0166,-3.9925,-4.0135,-4.0133,-4.0132,-4.0131,-4.013,-3.9805,-3.9855,-3.9884,-3.9938,-3.9962,-3.9993,-4.004,-4.0047,-4.0094,-4.0144,-4.0132,-4.0195,-4.022,-4.0273,-4.029,-4.0338,-4.0307,-4.0334,-4.034,-4.0346,-4.0355,-4.0163,-4.0345,-4.0345,-4.0344,-4.0344,-4.0344,0,-3.998,-3.9998,-4.0049,-4.0097,-4.014,-4.0111,-4.0146,-4.0182,-4.024,-4.0268,-4.0309,-4.0374,-4.0424,-4.0431,-4.0478,-4.0516,-4.0502,-4.0528,-4.0524,-4.0527,-4.038,-4.0359,-4.0539,-4.0539,-4.0539,-4.0539,-4.0539,-4.0539,-4.0076,-4.016,-4.0161,-4.0257,-4.0273,-4.0338,-4.036,-4.0389,-4.0412,-4.0487,-4.053,-4.0536,-4.0556,-4.0605,-4.0649,-4.065,-4.0668,-4.07,-4.0695,-4.0557,-4.0537,-4.0518,-4.0498,-4.0705,-4.0705,-4.0838,-4.0839,-4.084]},{"header":{"parameterUnit":"m.s-1","parameterCategory":1,"la1":30.2991,"la2":30.254,"lo1":-89.0895,"lo2":-89.0444,"dy":0.0017,"dx":0.0017,"nx":28,"ny":28,"refTime":"2023-05-23T21:00:00:Z","depth":0,"parameterNumber":3,"parameterNumberName":"V-component_of_WINDS"},"data":[0,0,0,0,0,0,0,0,0,0,0,0,0,0,0,0,0,0,0,0,0,0,0,0,0,0,0,0,0,0,0,0,0,0,0,0,0,0,0,0,0,0,0,0,0,0,0,0,0,0,0,0,0,0,0,0,0,0,-3.4802,-3.4803,0,-3.4873,-3.4874,-3.4874,-3.4914,-3.4915,-3.4915,-3.4915,-3.498,-3.4982,-3.4983,0,0,0,0,0,0,0,0,0,0,0,0,0,-3.4695,-3.4696,-3.4802,-3.4803,-3.4804,-3.4873,-3.4874,-3.4874,-3.4914,-3.4915,-3.4915,-3.4915,-3.498,-3.4982,-3.4983,0,0,0,0,0,0,0,0,0,0,0,0,0,-3.4751,-3.4697,-3.4802,-3.4832,-3.4836,-3.4872,-3.4874,-3.4875,-3.4914,-3.4915,-3.4915,-3.4915,-3.4979,-3.4981,-3.4984,-3.4993,0,0,-3.4991,-3.4992,0,0,0,0,0,0,0,0,-3.4747,-3.4754,-3.4827,-3.483,-3.4834,-3.4885,-3.486,-3.4914,-3.4914,-3.4884,-3.4915,-3.4915,-3.4948,-3.4953,-3.4965,-3.4997,-3.4999,-3.4991,-3.4993,-3.4994,-3.4994,0,0,0,0,0,0,0,-3.4743,-3.4752,-3.483,-3.4828,-3.4832,-3.484,-3.4848,-3.487,-3.4914,-3.4887,-3.489,-3.4898,-3.495,-3.4963,-3.4967,-3.5,-3.4991,-3.4993,-3.4995,-3.4996,-3.5041,-3.5041,0,0,0,0,0,0,-3.4736,-3.4748,-3.4828,-3.4832,-3.4791,-3.4842,-3.4851,-3.4868,-3.4914,-3.4921,-3.4898,-3.49,-3.4959,-3.4964,-3.497,-3.4983,-3.4994,-3.4996,-3.4997,-3.5042,-3.5041,-3.5041,0,0,0,0,0,0,-3.4733,-3.4743,-3.4825,-3.4791,-3.4802,-3.4843,-3.4863,-3.487,-3.4883,-3.4922,-3.4929,-3.4904,-3.4959,-3.4966,-3.4987,-3.4986,-3.4997,-3.4999,-3.5042,-3.5042,-3.5041,-3.5011,0,0,0,0,0,0,-3.473,-3.4741,-3.4747,-3.4791,-3.4804,-3.4844,-3.4863,-3.4871,-3.4888,-3.4891,-3.4929,-3.4936,-3.496,-3.4984,-3.499,-3.499,-3.5001,-3.5042,-3.5042,-3.5041,-3.5012,-3.501,-3.5008,0,0,0,0,0,-3.4726,-3.4735,-3.4748,-3.4757,-3.4813,-3.4844,-3.4851,-3.488,-3.4888,-3.4893,-3.4917,-3.4935,-3.4985,-3.4986,-3.4993,-3.4993,-3.5042,-3.5042,-3.5041,-3.5014,-3.501,-3.5008,0,0,0,0,0,0,-3.4688,-3.4741,-3.4756,-3.4779,-3.4807,-3.485,-3.4858,-3.4876,-3.49,-3.4902,-3.4935,-3.4943,-3.4961,-3.4979,-3.4978,-3.5004,-3.5016,-3.5016,-3.4992,-3.4989,-3.4987,-3.4982,-3.5003,0,0,0,0,0,-3.4682,-3.4706,-3.475,-3.4766,-3.478,-3.4816,-3.4831,-3.4851,-3.488,-3.4891,-3.4918,-3.4943,-3.4964,-3.4978,-3.5,-3.5015,-3.5023,-3.5019,-3.5017,-3.5014,-3.5015,-3.5023,-3.5021,-3.504,-3.504,-3.504,0,0,-3.4671,-3.4703,-3.4715,-3.4759,-3.4783,-3.4804,-3.4826,-3.4847,-3.4862,-3.4894,-3.4916,-3.4936,-3.4966,-3.4984,-3.4993,-3.5,-3.5011,-3.5014,-3.5012,-3.5013,-3.5022,-3.502,-3.5019,-3.5039,-3.5039,-3.5039,0,0,-3.4661,-3.4688,-3.4705,-3.4728,-3.4764,-3.4789,-3.4792,-3.4833,-3.4848,-3.4872,-3.4895,-3.4912,-3.4949,-3.497,-3.4985,-3.4981,-3.4997,-3.4987,-3.4974,-3.4982,-3.498,-3.4979,-3.4977,-3.4976,-3.4987,-3.4987,-3.4987,0,-3.4641,-3.4676,-3.471,-3.473,-3.4748,-3.478,-3.4795,-3.4815,-3.4856,-3.4866,-3.4874,-3.492,-3.4943,-3.4965,-3.4965,-3.4976,-3.498,-3.4983,-3.4978,-3.4978,-3.4977,-3.4975,-3.4974,-3.4986,-3.4986,-3.4986,-3.4986,0,-3.465,-3.4673,-3.4682,-3.4723,-3.4741,-3.4759,-3.4793,-3.4807,-3.4825,-3.4848,-3.487,-3.4898,-3.4926,-3.4933,-3.495,-3.4957,-3.496,-3.4973,-3.4984,-3.4973,-3.4972,-3.4971,-3.4984,-3.4984,-3.4985,-3.4985,0,0,-3.4618,-3.4677,-3.4679,-3.4698,-3.474,-3.4757,-3.4775,-3.4805,-3.4816,-3.4842,-3.4856,-3.4887,-3.4898,-3.4915,-3.4935,-3.4942,-3.4935,-3.4953,-3.4954,-3.4948,-3.4944,-3.4934,-3.4932,-3.4947,-3.4947,-3.4947,-3.4941,0,-3.4613,-3.465,-3.468,-3.4704,-3.4725,-3.4755,-3.477,-3.4796,-3.4817,-3.4836,-3.4858,-3.4879,-3.4893,-3.4903,-3.4911,-3.4935,-3.4935,-3.4935,-3.4958,-3.4959,-3.4949,-3.4932,-3.4922,-3.4915,-3.494,-3.494,-3.494,0,-3.4613,-3.464,-3.4667,-3.4706,-3.4716,-3.473,-3.4758,-3.4777,-3.4806,-3.4821,-3.4839,-3.486,-3.4878,-3.4888,-3.4912,-3.4911,-3.4922,-3.4935,-3.4935,-3.4938,-3.4948,-3.4933,-3.4914,-3.4912,-3.494,-3.494,-3.494,0,-3.4585,-3.4629,-3.465,-3.4665,-3.4712,-3.472,-3.4739,-3.4769,-3.4784,-3.4809,-3.4819,-3.4844,-3.4857,-3.4875,-3.4901,-3.4906,-3.4921,-3.4934,-3.4932,-3.4931,-3.4933,-3.4932,-3.4914,-3.4941,-3.4941,-3.4941,-3.4941,0,-3.4577,-3.4592,-3.4639,-3.4652,-3.4669,-3.4702,-3.4717,-3.4738,-3.4764,-3.478,-3.4806,-3.482,-3.4854,-3.4871,-3.4891,-3.4907,-3.4913,-3.4923,-3.4928,-3.4921,-3.4919,-3.4928,-3.4929,-3.4941,-3.4941,-3.4941,-3.4941,0,-3.4549,-3.4582,-3.4607,-3.4649,-3.466,-3.467,-3.4705,-3.4718,-3.474,-3.476,-3.4766,-3.4801,-3.4822,-3.485,-3.488,-3.4893,-3.4906,-3.4914,-3.4897,-3.49,-3.4896,-3.4895,-3.4882,-3.4881,-3.4909,-3.4909,-3.4908,0,-3.4541,-3.4554,-3.4598,-3.4612,-3.4631,-3.4652,-3.4668,-3.4701,-3.4716,-3.475,-3.4757,-3.4781,-3.4802,-3.4834,-3.4861,-3.4883,-3.4891,-3.4885,-3.4895,-3.4886,-3.489,-3.4889,-3.4889,-3.4882,-3.4882,-3.4882,-3.4881,0,-3.4523,-3.4539,-3.4563,-3.4592,-3.4611,-3.4635,-3.466,-3.4668,-3.4705,-3.4721,-3.4744,-3.4761,-3.4791,-3.4814,-3.484,-3.4857,-3.4874,-3.4878,-3.4879,-3.487,-3.4859,-3.4864,-3.4889,-3.4878,-3.4878,-3.4879,-3.4879,-3.4879,-3.4505,-3.4517,-3.455,-3.4575,-3.4598,-3.462,-3.4634,-3.4658,-3.4679,-3.4709,-3.4726,-3.4748,-3.4775,-3.4811,-3.4828,-3.4844,-3.4851,-3.4852,-3.4852,-3.4851,-3.4848,-3.4858,-3.4848,-3.4849,-3.4849,-3.4849,-3.4849,0,-3.4488,-3.4511,-3.4534,-3.4568,-3.4587,-3.4605,-3.4632,-3.4646,-3.4666,-3.4691,-3.4712,-3.4737,-3.4759,-3.4787,-3.481,-3.4817,-3.4826,-3.4822,-3.4822,-3.4825,-3.4841,-3.4838,-3.4815,-3.4815,-3.4815,-3.4815,-3.4815,-3.4815,-3.4481,-3.4502,-3.4521,-3.4553,-3.4575,-3.4599,-3.4613,-3.4632,-3.4652,-3.4681,-3.47,-3.4719,-3.4744,-3.4769,-3.4789,-3.4796,-3.4803,-3.4797,-3.4806,-3.4821,-3.4824,-3.4827,-3.4824,-3.4798,-3.4798,-3.4789,-3.4788,-3.4788]}]]